Weather in Suleymanovo

Russia / Kurgan Oblast     54°45′54″N   62°32′57″E
temp.,
°C
wind,
m/s
gust,
m/s
humid.,
%
clouds,
%
prec.,
mm/h
press.,
hPa
HPBL,
m
21 april, wed
wed2123:00+3w47530 0.0 1030112
02:00+2nw48640 0.0 1030134
05:00+1nw36720 0.0 103190
08:00+4nnw46640 0.0 1032221
11:00+9nw44460 0.0 1033896
14:00+12nnw33340 0.0 10321403
17:00+13nnw22310 0.0 10321472
20:00+10ene11400 0.0 103310
22 april, thu
thu2223:00+8sse224660 0.0 103414
02:00+6sse33525 0.0 103421
05:00+5ssw33584 0.0 103634
08:00+8s354873 0.0 1036175
11:00+12s5635100 0.0 10361009
14:00+14ssw6730100 0.0 10351681
17:00+13ssw6732100 0.0 10351670
20:00+11s4844100 0.0 1035170
23 april, fri
fri2323:00+9s3652100 0.0 1035108
02:00+8sse3759100 0.0 1034126
05:00+7s4864100 0.0 1034183
08:00+9sse41061100 0.0 1034394
11:00+13s6104698 0.0 10331867
14:00+14s6842100 0.0 10322129
17:00+14s6742100 0.0 10311883
20:00+12se4848100 0.0 1031183
24 april, sat
sat2423:00+10sse61250100 0.0 1030385
02:00+9sse51047100 0.0 1029330
05:00+8s2680100 0.4 1028509
08:00+7se6974100 0.4 1027421
11:00+10se81151100 0.4 1026849
14:00+11se91136100 0.0 10241271
17:00+10sse81342100 0.0 10221334
20:00+6sse61163100 0.1 10221001
25 april, sun
sun2523:00+5sse61083100 0.1 1021586
02:00+7ese61260100 0.0 1018456
05:00+6se61258100 0.0 1016392
08:00+7se585497 0.0 1015504
11:00+8ssw4453100 0.0 1015693
14:00+8w566516 0.0 1017777
17:00+13w47515 0.0 10171148
20:00+11sw336395 0.0 101736